Regional Weather Roundup
Issued by NWS

Home | Current Version | Previous Version | Graphics & Text | Print | Product List | Glossary Off
Versions: 1 2 3 4 5 6 7 8 9 10 11 12 13 14 15 16 17 18 19 20 21 22 23 24 25 26 27 28 29 30 31 32 33 34 35 36 37 38 39 40 41 42 43 44 45 46 47 48 49 50

559
ASUS43 KDMX 130908
RWRIA

WEATHER ROUNDUP FOR IOWA
NATIONAL WEATHER SERVICE DES MOINES IA
300 AM CST SAT FEB 13 2016

NOTE: "FAIR" INDICATES FEW OR NO CLOUDS BELOW 12,000 FEET WITH NO
SIGNIFICANT WEATHER AND/OR OBSTRUCTIONS TO VISIBILITY.

* - THESE STATIONS ARE NOT NWS STATIONS...THUS NOT UNDER NWS
QUALITY CONTROL.  THEY ALSO DO NOT REPORT WEATHER SUCH
AS PRECIPITATION OR FOG.

IAZ001>003-012>014-020>022-031>034-043>046-131000-
   NORTHWEST IOWA

CITY           SKY/WX    TMP DP  RH WIND       PRES   REMARKS
CARROLL *      PTCLDY     0  -6  78 N7        30.62F WCI -13
CHEROKEE *     CLOUDY    -4  -6  92 NE5       30.61F WCI -15
DENISON *      MOCLDY     1  -4  78 NE6       30.59F WCI -10
LE MARS *      MOCLDY     1  -4  78 NE6       30.63F WCI -10
ORANGE CITY *  PTCLDY     0  -6  78 NE5       30.58F WCI -10
SHELDON *      CLEAR     -6  -9  84 CALM      30.58F
SIOUX CITY     CLOUDY     6  -5  60 E7        30.64S WCI  -6
SPENCER        CLOUDY    -6 -12  75 N6        30.60F WCI -19
STORM LAKE *   CLEAR     -2  -8  78 N10       30.58F WCI -19
$$

IAZ055>058-069>071-079>083-090>094-131000-
   SOUTHWEST IOWA

CITY           SKY/WX    TMP DP  RH WIND       PRES   REMARKS
ATLANTIC *     CLOUDY     5  -2  72 NE12      30.62F WCI -11
AUDUBON *      PTCLDY     1  -4  78 N5        30.61S WCI  -8
CLARINDA *     CLOUDY    10   1  67 NE8       30.65S WCI  -1
COUNCIL BLFS * CLOUDY     7   0  72 NE7       30.61S WCI  -5
CRESTON *      CLOUDY     5  -4  66 N9        30.62S WCI  -9
HARLAN  *      MOCLDY     5  -2  72 NE6G13    30.65R WCI  -6
LAMONI         CLOUDY     6  -1  73 N9        30.62R WCI  -8
RED OAK *      CLOUDY     9   0  66 NE8       30.63F WCI  -4
SHENANDOAH *   CLOUDY    12   1  62 NE8       30.64F WCI   1
$$

IAZ047>049-059>061-072>074-084-131000-
   CENTRAL IOWA

CITY           SKY/WX    TMP DP  RH WIND       PRES   REMARKS
AMES           CLOUDY     1  -5  75 N9        30.64S WCI -14
ANKENY *       CLEAR      1  -6  71 N6        30.66S WCI -10
BOONE *        CLEAR     -2  -8  78 N10       30.61S WCI -19
CHARITON *     CLEAR      1  -4  78 NW7       30.63S WCI -11
DES MOINES     CLOUDY     2  -5  72 NW7       30.65R WCI -11
GRINNELL*      PTCLDY     1  -2  85 NW8       30.63R WCI -12
KNOXVILLE *    CLEAR      3  -6  66 NW8       30.63S WCI -10
MARSHALLTOWN   CLOUDY    -2  -6  83 NW7       30.62R WCI -15
NEWTON *       CLEAR      1  -4  78 NW8       30.64R WCI -12
PELLA *        CLOUDY     1  -4  78 N7        30.66S WCI -11
$$

IAZ004>006-015-016-023>025-035-036-131000-
   NORTH CENTRAL IOWA

CITY           SKY/WX    TMP DP  RH WIND       PRES   REMARKS
ALGONA *       CLEAR     -4  -8  84 N8        30.60S WCI -19
CLARION *      CLEAR     -6 -11  77 NW7       30.62S WCI -20
ESTHERVILLE    CLOUDY    -7 -11  83 NW7       30.60S WCI -21
FORT DODGE *   CLOUDY    -4 -11  71 N3        30.63F
MASON CITY     CLOUDY    -5 -10  79 NW13      30.61S WCI -24
FOREST CITY *  CLEAR     -2  -8  78 NW6       30.60R WCI -14
WEBSTER CITY * CLEAR     -6 -11  77 NW8       30.62R WCI -21
IOWA FALLS *     N/A     -4  -9  77 CALM      30.62S
$$

IAZ007>011-017>019-026>030-037>042-050>054-066-131000-
   NORTHEAST IOWA

CITY           SKY/WX    TMP DP  RH WIND       PRES   REMARKS
CEDAR RAPIDS   CLOUDY     3  -5  69 NW9       30.60S WCI -12
CHARLES CITY * CLEAR     -2 -13  60 NW10      30.60S WCI -19
CLINTON *      PTCLDY     2  -5  72 NW7       30.61R WCI -11
DECORAH *      CLEAR     -4 -13  65 CALM      30.57R
DUBUQUE        CLOUDY     2 -10  57 NW10      30.56R WCI -14
MONTICELLO *   CLEAR      1  -8  66 NW8       30.60S WCI -12
OELWEIN *      CLEAR     -4 -11  71 NW9       30.59S WCI -20
WATERLOO       CLOUDY    -3 -10  72 NW7       30.62R WCI -16
$$

IAZ064-065-067-068-078-131000-
   EAST CENTRAL IOWA

CITY           SKY/WX    TMP DP  RH WIND       PRES   REMARKS
DAVENPORT      CLOUDY     3  -5  69 NW7       30.60R WCI  -9
IOWA CITY      CLOUDY     6  -6  57 N7        30.64S WCI  -6
MT. PLEASANT * CLOUDY     9   0  66 NW5       30.63R WCI   0
MUSCATINE *    CLEAR      7  -4  61 NW9       30.65R WCI  -7
QUAD CITIES    PTCLDY     7  -7  52 N8        30.61R WCI  -6
$$

IAZ062-063-075>077-085>089-095>099-131000-
   SOUTHEAST IOWA

CITY           SKY/WX    TMP DP  RH WIND       PRES   REMARKS
BURLINGTON     CLOUDY     6  -3  66 NW5       30.61R WCI  -3
FAIRFIELD *    CLEAR      5  -4  66 NW8       30.64R WCI  -8
FORT MADISON * CLEAR      7   0  72 NW8       30.62R WCI  -6
KEOKUK *       CLEAR      7  -2  66 NW6       30.62S WCI  -3
OSKALOOSA *      N/A      3   0  85 NW6       30.64R WCI  -8
CENTERVILLE *  CLEAR      3   0  85 NW7       30.64R WCI  -9
OTTUMWA        CLOUDY     3  -2  79 NW9       30.64R WCI -12
WASHINGTON *   CLEAR      5  -4  66 NW9       30.64R WCI  -9
$$

ABBREVIATIONS USED IN REMARKS
   TC - TEMPERATURES IN CELSIUS
  WCI - WIND CHILL INDEX
   HX - HEAT INDEX
  VSB - VISIBILITY
$$





USA.gov is the U.S. government's official web portal to all federal, state and local government web resources and services.